Home   Weather   Clovis   Past weeks
Flag for USA

Past Weather in Clovis, New Mexico, USA — Yesterday and Last 2 Weeks

Now
42 °F

Clear.


Feels Like: 36 °F
Forecast: 65 / 35 °F
Wind: 10 mph from North

Location: Cannon Air Force Base / Clovis

Current Time: Oct 21, 2019 at 2:18:46 am

Latest Report: Oct 21, 2019 at 12:58 am


Visibility: 10 mi

Pressure: 29.82 "Hg (25.43 "Hg at 1300m altitude)

Humidity: 20%

Dew Point: 4 °F

Location of ClovisLocation

Past Weather in Clovis — Graph

°F

Clovis Temperature Yesterday

Maximum temperature yesterday: 76 °F (at 1:58 pm)
Minimum temperature yesterday: 45 °F (at 11:58 pm)
Average temperature yesterday: 59 °F

High & Low Weather Summary for the Past Weeks

 TemperatureHumidityPressure
High81 °F (Oct 13, 3:13 pm)100% (Oct 6, 12:58 am)30.47 "Hg (Oct 6, 12:58 am)
Low27 °F (Oct 11, 6:58 am)8% (Oct 20, 2:58 pm)29.55 "Hg (Oct 18, 1:58 pm)
Average57 °F50%29.96 "Hg
* Reported Oct 6 12:58 am — Oct 21 12:58 am, Clovis. Weather by CustomWeather, © 2019

Note: Actual official high and low records may vary slightly from our data, if they occured in-between our weather recording intervals... More about our weather records

Advertising

Clovis Weather History for the Previous 24 Hours

Scroll right to see more
 ConditionsComfort  
Time TempWeatherWind HumidityBarometerVisibility
12:58 am
Mon, Oct 21
42 °FClear.10 mph20%29.82 "Hg10 mi
11:58 pm
Sun, Oct 20
45 °FClear.15 mph18%29.82 "Hg10 mi
10:58 pm49 °FClear.14 mph14%29.81 "Hg10 mi
9:58 pm51 °FClear.9 mph13%29.81 "Hg10 mi
8:58 pm53 °FClear.12 mph12%29.81 "Hg10 mi
7:58 pm56 °FClear.10 mph13%29.80 "Hg10 mi
6:58 pm60 °FClear.18 mph13%29.76 "Hg10 mi
5:58 pm67 °FSunny.23 mph14%29.67 "Hg10 mi
4:58 pm71 °FSunny.23 mph11%29.65 "Hg10 mi
3:58 pm74 °FSunny.25 mph10%29.62 "Hg10 mi
2:58 pm76 °FSunny.23 mph8%29.60 "Hg10 mi
1:58 pm76 °FSunny.25 mph10%29.60 "Hg10 mi
12:58 pm75 °FScattered clouds.18 mph13%29.62 "Hg10 mi
11:58 am73 °FSunny.21 mph15%29.65 "Hg10 mi
10:58 am71 °FSunny.21 mph17%29.67 "Hg10 mi
9:58 am63 °FSunny.10 mph32%29.72 "Hg10 mi
8:58 am54 °FSunny.7 mph49%29.73 "Hg10 mi
7:58 am48 °FSunny.7 mph57%29.73 "Hg10 mi
6:58 am46 °FClear.7 mph57%29.72 "Hg10 mi
5:58 am52 °FClear.12 mph46%29.70 "Hg10 mi
4:58 am52 °FClear.12 mph45%29.68 "Hg10 mi
3:58 am49 °FClear.9 mph50%29.67 "Hg10 mi
2:58 am49 °FClear.3 mph49%29.70 "Hg10 mi
Weather by CustomWeather, © 2019

See weather overview